Current Version              Previous Version:    01  02  03  04  05  06  07  08  09  10  11  12  13  14  15  16  17  18  19  20  21  22  23  24  25  26  27  28  29  30  
   31  32  33  34  35  36  37  38  39  40  41  42  43  44  45  46  47  48  49  50  51  52  53  54  55  56  57  58  59  60  

[Printable]
025
ASUS44 KFWD 292303
RWRTX
NORTH TEXAS HOURLY WEATHER ROUNDUP
NATIONAL WEATHER SERVICE FORT WORTH TX
600 PM CDT FRI AUG 29 2014

NOTE: "FAIR" INDICATES FEW OR NO CLOUDS BELOW 12,000 FEET WITH NO
SIGNIFICANT WEATHER AND/OR OBSTRUCTIONS TO VISIBILITY.

TXZ118-119-300000-
DALLAS/FORT WORTH METROPLEX

CITY           SKY/WX    TMP DP  RH WIND       PRES   REMARKS
DFW AIRPORT    PTSUNNY   92  64  39 NW7       29.84F HX  93
DALLAS LOVE    MOSUNNY   91  68  46 S15       29.85S HX  95
FTW MEACHAM    MOSUNNY   92  63  38 CALM      29.83F HX  93
DAL-EXECUTIVE  MOSUNNY   86  68  54 SE21G28   29.87R
FTW-ALLIANCE   PTSUNNY   89  66  46 NW3       29.84F HX  91
FTW-NAS-JRB    PTSUNNY   95  62  33 N5        29.88F HX  96
FTW-SPINKS     SUNNY     91  61  35 CALM      29.86F HX  91
ARLINGTON      MOSUNNY   93  60  33 S3        29.85F HX  93
ADDISON        PTSUNNY   91  63  38 W5        29.85F HX  92
MESQUITE       MOSUNNY   82  70  65 S13       29.86R
LANCASTER      TSTM      73  69  89 S18G25    29.88F
$$

TXZ091>094-102>105-117-120-121-131>134-300000-
NORTH CENTRAL TEXAS

CITY           SKY/WX    TMP DP  RH WIND       PRES   REMARKS
SHRMAN/DENISON MOSUNNY   90  63  40 SW7       29.88S HX  91
GAINESVILLE    PTSUNNY   84  68  59 NE3       29.89F
BOWIE          CLOUDY    82  68  62 CALM      29.89S
BRIDGEPORT     CLOUDY    83  65  53 N3        29.89S
DECATUR        CLOUDY    81  68  64 N3        29.88F
DENTON         PTSUNNY   88  64  44 CALM      29.85F
MCKINNEY       MOSUNNY   92  65  40 N3        29.85F HX  94
GREENVILLE     MOSUNNY   86  70  58 CALM      29.87S HX  90
ROCKWALL       PTSUNNY   87  72  61 S5        29.85S HX  93
TERRELL        PTSUNNY   89  70  53 S6        29.85F HX  94
WAXAHACHIE     CLOUDY    79  65  62 E13G25    29.89R
CLEBURNE       SUNNY     93  63  36 CALM      29.86F HX  94
GRANBURY       MOSUNNY   92  62  36 N3        29.85F HX  92
$$

TXZ083>090-098>101-113>116-127>130-139>142-154-155-300000-
WESTERN NORTH TEXAS

CITY           SKY/WX    TMP DP  RH WIND       PRES   REMARKS
WICHITA FALLS  MOSUNNY   86  66  51 SW8       29.86F
WF-KICKAPOO    PTSUNNY   87  64  45 SW7       29.89S
VERNON         SUNNY     88  67  50 S8        29.88S HX  90
ABILENE        MOSUNNY   87  66  49 E8        29.90R
ABILENE-DYESS  TSTM      75  72  88 N10G31    29.89R
BRECKENRIDGE   PTSUNNY   78  69  72 E5        29.89S HAZE
GRAHAM         CLOUDY    80  71  74 CALM      29.86F
MINERAL WELLS  PTSUNNY   84  70  62 N6        29.85F
STEPHENVILLE   MOSUNNY   89  61  39 CALM      29.88F
COMANCHE         N/A     85  67  55 N12       29.87F
BROWNWOOD      PTSUNNY   84  68  58 N8        29.86F
COLEMAN        MOSUNNY   84  66  55 NE12      29.88F
BRADY          SUNNY     88  64  45 NE7       29.87S
$$

TXZ143>147-156>162-174-175-300000-
CENTRAL TEXAS

CITY           SKY/WX    TMP DP  RH WIND       PRES   REMARKS
WACO           PTSUNNY   91  71  51 E15       29.82F HX  97
WACO-TSTC      SUNNY     93  70  46 SE16      29.83F HX  99
WACO-MCGREGOR  PTSUNNY   91  72  52 S21G26    29.83F HX  98
HILLSBORO      MOSUNNY   88  64  43 E14G22    29.85R
CORSICANA      CLOUDY    90  69  50 S10       29.86F HX  94
MEXIA          CLOUDY    88  74  63 E6        29.85S HX  95
HEARNE         DRIZZLE   76  74  94 CALM      29.87F
CAMERON        CLOUDY    77  71  80 SE6       29.85F
TEMPLE         PTSUNNY   82  66  57 SE12      29.86S
KILLEEN        PTSUNNY   88  73  62 E20G25    29.85R HX  96
KILLEEN-SKYLRK PTSUNNY   86  66  51 E12G20    29.85R
FORT HOOD      PTSUNNY   88  68  51 E15G22    29.85S HX  91
GATESVILLE     MOSUNNY   95  68  41 SE14G20   29.85F HX  99
$$

TXZ095>097-106>112-122>126-135>138-148>153-164>167-300000-
EAST TEXAS

CITY           SKY/WX    TMP DP  RH WIND       PRES   REMARKS
PARIS          SUNNY     88  70  55 S9        29.88F HX  92
SULPHUR SPRNGS MOSUNNY   88  69  53 SW6       29.89S THUNDER HX  92
MOUNT PLEASANT CLOUDY    73  71  92 W8        29.92R
GILMER         PTSUNNY   79  73  83 N3        29.89S
MINEOLA        MOSUNNY   90  73  58 SW5       29.87S HX  98
TYLER          PTSUNNY   83  70  64 E12G20    29.86F
LONGVIEW       PTSUNNY   94  68  42 SE13      29.85S HX  98
MARSHALL       MOSUNNY   94  71  47 SE5       29.88S HX 100
ATHENS         PTSUNNY   86  72  62 CALM      29.85R HX  92
PALESTINE      PTSUNNY   89  71  56 SE3       29.86S HX  95
JACKSONVILLE   TSTM      73  68  83 E8G29     29.92R VSB 1/2
HENDERSON      PTSUNNY   92  67  42 S9        29.87R HX  95
NACOGDOCHES    PTSUNNY   88  72  58 S8        29.88R HX  94
LUFKIN         PTSUNNY   88  72  58 SE6       29.87S HX  94
$$

SUPPLEMENTAL OBSERVATIONS (CENTRAL)

CITY           SKY/WX    TMP DP  RH WIND       PRES   REMARKS
$$

SUPPLEMENTAL OBSERVATIONS (WEST)

CITY           SKY/WX    TMP DP  RH WIND       PRES   REMARKS
$$

SUPPLEMENTAL OBSERVATIONS (EAST)

CITY           SKY/WX    TMP DP  RH WIND       PRES   REMARKS
$$

SUPPLEMENTAL OBSERVATIONS ARE A COLLECTION OF AUTOMATED INSTRUMENTS
THAT ARE MAINTAINED BY A VARIETY OF FEDERAL AND STATE AGENCIES.
CERTAIN ELEMENTS...SUCH AS HUMIDITY VALUES AND SUSTAINED WIND
SPEEDS...MAY BE APPROXIMATED.